TimeCDT,TemperatureF,Dew PointF,Humidity,Sea Level PressureIn,VisibilityMPH,Wind Direction,Wind SpeedMPH,Gust SpeedMPH,PrecipitationIn,Events,Conditions,WindDirDegrees,DateUTC
12:53 AM,48.9,42.1,77,29.99,10.0,South,13.8,-,N/A,,Clear,180,2012-10-11 05:53:00
1:53 AM,48.0,42.1,80,29.98,10.0,South,11.5,-,N/A,,Clear,180,2012-10-11 06:53:00
2:53 AM,48.0,43.0,83,29.95,10.0,South,12.7,-,N/A,,Clear,190,2012-10-11 07:53:00
3:53 AM,48.0,44.1,86,29.93,10.0,South,12.7,-,N/A,,Clear,190,2012-10-11 08:53:00
4:53 AM,48.0,45.0,89,29.93,10.0,South,11.5,-,N/A,,Clear,190,2012-10-11 09:53:00
5:53 AM,50.0,46.9,89,29.91,10.0,SSW,15.0,-,N/A,,Clear,200,2012-10-11 10:53:00
6:53 AM,51.1,46.9,86,29.93,10.0,SSW,8.1,-,N/A,,Clear,200,2012-10-11 11:53:00
7:53 AM,52.0,45.0,77,29.94,10.0,WSW,4.6,-,N/A,,Clear,240,2012-10-11 12:53:00
8:53 AM,57.0,45.0,64,29.94,10.0,WSW,9.2,-,N/A,,Clear,240,2012-10-11 13:53:00
9:53 AM,64.9,46.9,52,29.95,10.0,WSW,12.7,17.3,N/A,,Clear,240,2012-10-11 14:53:00
10:53 AM,73.0,46.9,39,29.92,10.0,WSW,29.9,36.8,N/A,,Clear,240,2012-10-11 15:53:00
11:53 AM,78.1,48.9,36,29.92,10.0,SW,19.6,31.1,N/A,,Clear,230,2012-10-11 16:53:00
12:53 PM,82.0,48.9,31,29.89,10.0,SW,19.6,25.3,N/A,,Clear,220,2012-10-11 17:53:00
1:53 PM,86.0,48.0,27,29.86,10.0,SW,19.6,26.5,N/A,,Clear,220,2012-10-11 18:53:00
3:53 PM,89.1,46.0,22,29.82,10.0,SSW,17.3,-,N/A,,Clear,200,2012-10-11 20:53:00
5:53 PM,84.9,48.0,28,29.84,10.0,South,10.4,-,N/A,,Clear,180,2012-10-11 22:53:00
6:53 PM,82.0,48.9,31,29.86,10.0,South,9.2,-,N/A,,Clear,170,2012-10-11 23:53:00
8:53 PM,66.9,46.9,49,29.98,10.0,NE,19.6,25.3,N/A,,Mostly Cloudy,50,2012-10-12 01:53:00
9:53 PM,64.0,46.9,54,30.01,10.0,NE,15.0,25.3,N/A,,Clear,50,2012-10-12 02:53:00
10:53 PM,63.0,46.9,56,30.01,10.0,NE,18.4,-,N/A,,Clear,50,2012-10-12 03:53:00
11:53 PM,62.1,46.9,58,30.02,10.0,NE,12.7,20.7,N/A,,Clear,40,2012-10-12 04:53:00